Lid_Strength_Index
5 5 4 4 4 4 4 3 3 3 3 3 3 2 2 2 2 2 5 2 1 -1 -0 5 5 5 6 8 7 6 11 13 12 10 9 6 8 6 6 8 6 5 6 4 3
5 5 5 4 4 4 4 3 3 3 3 3 3 3 1 2 4 3 0 -1 -1 -1 5 7 7 7 10 9 9 8 12 11 8 8 9 7 7 7 8 8 7 7 4 3 3
5 5 5 4 4 4 4 4 3 3 3 3 3 3 2 2 7 6 1 1 1 1 4 6 6 8 10 10 11 11 11 8 7 6 6 7 7 8 7 9 8 7 6 4 4
5 5 5 5 4 4 4 4 3 3 3 3 3 3 2 5 14 5 -0 0 0 2 5 7 7 10 11 11 10 13 10 10 9 8 8 8 7 8 9 7 6 5 5 4 5
5 5 5 5 5 4 4 4 3 3 2 2 2 3 5 9 9 4 0 2 3 3 4 7 8 8 10 11 10 12 11 9 9 9 9 8 8 8 8 7 5 4 5 5 5
6 6 5 5 5 4 4 3 3 3 2 2 3 3 7 11 4 3 3 3 4 4 5 5 6 6 8 9 11 10 9 9 9 9 9 9 8 7 7 6 6 5 5 5 5
6 6 5 5 5 4 4 3 3 3 3 3 3 4 7 8 5 4 4 4 4 5 5 4 4 7 8 9 8 9 12 10 10 10 10 8 10 9 6 6 7 6 5 5 5
6 6 5 5 5 4 3 3 3 3 3 3 2 5 9 4 5 4 4 5 3 3 5 5 4 6 8 8 9 11 12 16 12 10 10 10 14 9 6 7 7 7 5 5 5
6 6 5 5 5 4 3 3 3 4 4 3 5 8 9 3 6 5 5 6 4 3 5 4 6 9 9 12 15 14 17 15 13 10 10 11 13 9 7 7 7 7 7 5 5
6 5 5 5 4 3 3 2 4 4 4 4 4 9 7 8 6 5 5 5 5 6 6 8 9 13 12 14 17 15 14 13 15 11 10 11 13 11 8 7 8 7 7 6 5
6 5 5 4 3 3 4 7 11 11 9 10 9 9 7 6 5 6 4 5 5 7 12 10 14 15 12 12 11 11 12 13 11 9 10 11 12 10 10 8 8 8 7 6 5
6 5 5 4 3 3 6 10 9 9 14 8 8 7 6 5 8 7 5 9 9 12 10 13 15 10 9 9 10 12 13 13 10 8 9 11 12 9 8 8 8 9 9 8 5
6 5 4 4 4 6 8 8 6 7 13 9 8 8 7 6 9 7 6 8 11 12 12 15 11 9 10 11 12 12 13 13 12 10 9 12 14 11 9 9 8 8 8 8 5
6 5 4 4 7 8 9 6 6 7 20 15 10 8 7 7 9 5 5 8 10 12 11 12 9 10 12 12 11 14 10 10 12 14 17 12 19 13 11 10 9 9 8 8 8
6 6 5 4 9 9 7 6 6 8 26 13 11 6 8 9 9 9 6 8 12 12 11 13 11 11 12 12 10 12 10 11 11 14 15 14 17 15 11 12 11 9 8 8 7
6 6 5 6 8 7 6 7 8 19 27 19 12 12 11 10 10 9 9 8 9 11 11 11 8 9 11 10 10 9 11 11 12 14 19 14 16 16 13 11 11 12 11 9 8
6 6 6 6 9 6 6 10 20 23 18 20 17 13 13 13 13 12 11 13 14 16 17 14 11 9 9 11 9 10 13 19 21 21 20 13 16 13 11 11 12 11 11 11 10
6 7 6 6 6 7 9 18 26 25 24 14 14 13 15 14 15 13 13 16 11 12 15 16 18 12 9 10 13 12 13 18 22 22 19 14 16 13 11 11 9 11 11 10 10
6 9 9 8 6 8 16 24 23 21 16 16 15 20 20 14 16 17 16 13 12 11 15 16 17 10 9 9 10 13 15 11 16 17 18 16 14 11 11 11 10 10 10 10 9
11 11 11 7 7 11 20 19 21 13 13 14 20 18 24 19 19 20 17 12 14 11 10 12 16 12 10 9 10 11 10 16 15 22 22 16 17 17 13 12 11 10 10 9 9
12 16 10 7 9 17 24 22 18 13 13 15 17 18 17 18 18 22 18 13 12 12 10 10 13 14 11 13 14 13 14 13 13 14 19 19 16 12 13 12 11 10 9 9 10
14 23 10 9 20 19 26 24 14 14 13 13 14 15 16 16 17 16 16 14 12 12 15 10 13 15 15 11 10 11 13 13 17 18 15 16 16 11 11 10 9 10 10 10 10
17 16 10 10 25 23 18 21 15 15 14 14 15 14 14 16 20 16 15 12 11 12 14 12 14 19 18 13 11 12 11 11 12 13 16 18 17 11 11 10 10 11 11 10 10
18 19 16 15 17 20 24 23 21 14 15 14 14 14 15 17 15 17 16 13 12 11 9 11 14 15 19 16 13 14 13 11 12 16 16 15 14 11 12 11 11 11 11 11 10
17 20 18 20 17 19 19 18 18 21 15 14 16 15 16 21 18 18 15 15 13 11 12 14 23 15 15 14 13 13 13 13 14 13 16 14 14 11 11 12 11 10 10 10 10
18 19 19 16 18 18 16 21 18 17 17 17 22 15 15 20 17 18 16 16 16 14 14 14 22 20 22 13 13 14 13 12 12 12 13 13 14 10 10 9 11 10 10 10 9
13 13 16 15 18 20 21 17 16 15 15 14 15 16 16 15 14 14 13 13 13 15 17 17 20 24 27 17 16 20 15 13 14 12 13 15 12 10 11 10 10 10 9 9 9